Wind_Speed
10 7 9 12 11 15 3 7 8 6 18 14 12 9 11 16 13 18 16 21 19 20 19 25 29 28 27 31 25 26 29 26 20 18 12 7 8 7 12 11 5 6 3 4
10 15 15 13 15 17 12 10 4 6 12 7 19 12 17 19 19 20 18 20 20 18 14 25 26 28 32 33 28 26 27 26 21 20 17 10 10 6 14 11 5 5 1 4
17 18 17 18 16 18 16 9 10 11 6 14 14 14 15 19 14 16 16 17 19 21 18 20 21 30 29 34 34 29 27 25 22 18 16 7 6 10 11 8 7 6 3 2
13 17 19 21 19 15 16 14 14 18 8 13 11 4 21 20 18 19 18 16 22 21 20 16 19 28 30 32 37 34 26 26 24 20 16 13 9 7 4 8 8 7 5 5
16 20 17 24 21 18 17 19 18 18 14 13 13 6 11 22 21 22 21 20 16 21 23 21 21 27 31 34 36 38 31 27 27 24 15 15 14 10 6 10 14 12 8 9
18 18 19 23 18 22 17 18 17 14 10 9 10 6 5 21 28 20 19 21 22 17 24 22 30 29 29 34 34 38 36 31 28 27 21 17 17 15 4 13 11 7 9 13
15 20 21 18 20 19 19 12 8 5 5 6 10 5 3 6 17 23 17 21 24 21 23 22 22 26 30 30 34 37 39 35 31 28 27 20 20 19 13 6 12 10 8 7
10 15 20 13 12 19 16 13 7 7 6 8 5 1 1 12 19 24 26 22 24 25 23 25 24 31 33 31 36 36 38 36 37 31 31 27 23 18 14 13 11 11 9 4
7 16 15 19 20 15 19 13 11 8 15 5 4 2 5 3 9 15 11 11 20 26 25 24 27 34 35 37 36 37 38 36 40 38 31 30 29 25 21 19 17 17 15 9
18 14 14 23 14 22 11 11 8 7 11 9 3 5 6 11 15 12 6 11 13 26 25 24 25 35 37 39 35 38 40 38 38 40 38 32 30 29 29 25 22 18 17 12
17 15 21 12 10 16 15 13 10 4 6 6 4 6 8 12 10 11 12 17 21 26 26 24 25 36 40 37 35 34 38 37 36 38 37 36 36 32 30 29 26 21 18 15
5 3 13 21 20 20 19 11 13 9 8 5 4 5 4 10 3 4 7 11 25 25 24 23 22 33 37 36 34 33 38 38 38 39 36 35 34 35 34 33 32 26 21 26
7 5 3 7 11 16 10 19 10 5 4 9 3 5 2 6 6 2 3 19 12 22 22 21 19 23 32 36 35 34 34 37 37 37 36 35 36 36 36 34 33 33 29 27
2 4 4 6 8 5 8 18 17 11 9 8 10 5 7 11 9 6 8 17 24 20 21 21 19 21 29 33 34 34 34 36 38 37 36 35 35 38 36 33 34 32 29 28
3 5 7 16 17 15 15 16 22 13 14 11 12 8 10 10 14 8 4 11 15 15 19 19 17 20 26 29 32 34 36 35 40 37 36 36 37 36 35 34 34 32 32 32
14 5 12 15 13 14 18 17 16 21 17 8 12 3 6 7 4 7 10 9 9 17 19 18 17 21 19 28 33 34 36 34 39 38 37 35 35 37 38 36 36 34 33 33
7 9 8 5 8 10 9 7 11 12 17 7 13 9 13 6 8 12 20 20 12 14 17 18 18 20 27 30 34 32 36 36 37 38 36 36 37 37 39 39 37 36 35 35
8 7 4 5 7 4 7 8 12 12 16 13 5 15 18 15 12 15 20 14 8 9 16 17 14 19 30 32 32 34 34 37 35 34 35 35 38 38 37 39 38 38 39 37
6 4 5 4 4 11 16 9 7 7 7 6 10 11 8 6 7 4 2 7 8 12 11 16 23 27 28 31 32 34 32 35 34 33 34 37 39 37 37 37 39 38 35 34
8 6 3 4 4 4 7 12 17 8 3 19 18 7 14 12 6 11 18 4 2 6 13 18 24 29 29 32 37 33 31 31 33 35 38 40 42 40 39 40 38 37 34 30
5 5 6 9 5 8 13 16 12 4 5 12 12 14 8 5 6 9 13 7 1 15 13 29 28 28 34 37 38 33 30 35 41 35 34 38 40 41 38 35 35 33 30 27
9 5 5 5 4 7 15 9 6 5 7 7 13 14 8 9 4 3 12 11 9 12 9 26 25 27 32 38 38 32 34 46 36 38 37 39 40 38 34 35 32 32 30 29
11 10 7 6 5 2 10 8 6 7 6 10 14 14 13 10 9 7 7 14 6 7 9 8 24 29 29 36 38 32 46 38 40 39 40 39 40 39 36 34 32 30 32 30
8 5 8 9 10 9 11 10 8 8 7 11 10 12 15 9 9 8 7 7 6 4 5 11 6 12 19 34 38 45 38 32 33 35 34 33 34 34 36 33 36 34 33 31
9 12 10 3 15 12 16 13 9 10 7 11 13 15 16 16 14 15 8 7 4 2 8 12 10 4 12 31 36 41 32 32 34 33 30 31 34 38 35 36 36 38 40 42
3 5 5 3 10 6 12 12 18 15 7 13 14 15 15 15 14 14 11 9 7 6 12 11 10 12 12 16 30 38 37 37 33 28 29 31 31 31 33 33 33 38 36 38
Wind_Direction
245 244 228 236 246 260 142 123 148 206 287 312 281 233 211 189 168 169 187 172 173 168 180 175 180 185 149 160 161 169 167 164 166 176 181 194 196 173 151 140 103 102 28 36
248 243 244 232 251 263 272 134 218 296 257 252 273 263 186 192 186 176 188 176 171 170 165 177 181 175 164 166 169 175 169 167 170 175 182 203 228 234 162 132 118 152 263 20
220 230 239 247 241 254 264 160 171 212 112 304 307 292 189 208 180 177 191 176 177 178 173 176 167 165 167 166 174 177 172 173 172 179 194 186 159 142 142 150 162 180 220 19
238 238 232 238 240 236 257 198 200 235 168 227 149 228 193 187 186 178 184 202 181 181 181 172 167 168 173 170 177 181 176 179 181 187 201 206 181 174 198 204 201 189 203 258
238 230 230 239 243 235 245 260 232 236 206 256 240 212 213 176 186 181 179 191 193 187 184 182 178 173 177 175 177 183 184 186 191 195 198 206 203 200 255 217 180 194 240 241
237 253 227 239 244 246 252 247 260 268 250 233 253 191 203 180 192 171 180 186 195 186 183 183 183 181 181 175 177 182 184 188 195 202 201 206 206 203 236 176 190 229 250 253
244 248 256 248 236 247 242 248 254 289 281 219 245 278 318 122 152 143 177 200 190 191 174 184 181 181 186 179 176 180 185 187 194 202 206 203 201 215 223 213 204 227 273 315
221 241 243 238 218 227 242 228 208 227 232 243 70 212 224 139 146 167 181 176 189 187 188 178 182 181 188 190 179 179 182 186 191 199 207 208 205 209 208 215 208 218 268 326
234 228 246 238 241 233 238 243 220 221 258 280 124 351 4 204 166 202 217 199 183 189 186 181 179 182 187 194 181 180 181 186 193 198 204 210 213 213 215 213 220 231 238 249
237 265 249 244 235 243 223 222 246 233 237 252 209 188 197 195 187 226 227 255 225 184 184 177 181 183 188 190 186 181 182 184 190 200 202 205 211 216 221 225 230 234 240 247
219 228 259 270 258 230 237 239 229 215 177 215 175 253 206 189 226 179 213 237 203 179 181 175 182 178 184 187 182 178 179 183 188 193 202 207 212 218 221 222 224 229 227 222
10 295 231 249 259 272 233 226 214 222 273 236 204 256 122 146 205 263 126 21 187 181 174 175 169 171 178 182 183 179 177 183 190 195 198 203 211 215 219 223 225 223 224 232
348 323 284 294 275 260 262 227 220 201 196 245 184 240 190 111 65 18 56 350 210 179 165 169 164 170 173 180 182 182 174 184 187 192 196 201 207 211 215 223 227 228 227 233
323 240 275 272 271 285 302 218 221 204 230 247 252 216 213 146 125 15 14 323 177 172 161 168 166 171 175 178 181 184 186 183 186 190 194 199 203 210 213 221 227 226 224 227
318 260 282 283 281 300 290 291 209 217 221 224 251 170 214 179 150 154 120 352 173 152 161 168 164 172 176 178 182 184 187 184 184 189 194 200 203 207 212 218 224 225 222 226
345 316 325 299 295 297 298 297 304 217 229 239 249 58 131 104 355 107 56 343 239 155 164 168 164 169 176 177 180 182 186 185 182 189 196 199 201 203 210 216 221 223 226 225
326 350 337 276 350 321 297 258 277 277 213 203 241 169 161 169 145 110 76 275 260 161 162 168 171 173 178 181 180 183 184 184 184 190 194 196 201 202 209 215 219 220 224 223
306 328 291 297 348 266 254 305 288 290 219 217 244 152 172 170 181 166 159 186 263 201 164 174 171 175 179 181 182 182 183 187 190 192 194 196 199 205 208 213 216 221 221 220
249 301 310 307 299 304 303 293 321 335 338 279 205 163 171 146 68 353 347 181 252 212 162 175 177 176 177 182 182 179 181 187 191 195 196 198 200 203 207 210 213 216 216 214
243 235 179 336 318 270 272 320 325 354 72 356 9 185 150 155 145 169 227 217 301 296 161 170 171 175 177 182 185 182 186 189 199 200 201 202 204 205 207 210 211 213 214 210
223 241 235 264 255 282 332 344 314 48 321 333 0 8 164 158 191 185 149 79 249 347 233 173 175 179 186 183 184 188 189 202 206 204 204 204 207 210 211 210 211 210 210 205
221 212 195 243 249 269 346 29 58 303 326 342 4 11 12 11 17 272 115 90 24 341 258 175 180 192 187 185 185 190 201 212 204 206 209 211 211 210 210 208 207 207 204 198
241 223 198 209 213 53 34 62 12 351 337 17 14 3 13 11 27 16 59 115 128 297 348 7 191 186 185 189 192 193 211 204 205 203 208 210 211 210 208 204 203 200 201 194
315 242 224 232 6 34 31 19 9 344 1 26 1 357 360 354 11 4 32 75 70 16 320 3 8 209 182 190 194 207 210 202 199 202 207 207 207 205 206 204 203 201 197 195
280 316 326 201 18 335 11 349 341 330 33 32 19 15 10 1 5 1 348 9 350 73 328 344 358 34 220 193 200 212 211 205 202 207 207 206 207 205 204 206 205 206 205 202
326 349 5 328 346 310 318 344 355 358 30 54 35 9 6 10 354 348 350 4 0 301 326 334 329 325 313 235 210 211 208 205 200 203 207 209 206 206 206 205 207 209 211 209
Height
736 757 769 758 750 745 750 762 773 762 747 761 762 756 752 741 745 752 755 757 763 769 772 779 786 791 796 801 806 811 816 819 823 827 827 828 829 830 834 833 834 835 835 835
749 759 738 731 734 739 745 768 777 749 740 762 750 749 744 738 736 741 750 756 758 764 769 775 782 787 792 797 804 810 814 818 822 826 827 829 829 831 831 833 834 834 835 835
748 738 724 730 736 743 742 760 761 764 748 756 752 760 759 740 736 742 745 750 757 760 765 771 777 783 789 794 800 807 812 816 820 824 827 829 829 830 832 833 834 834 835 834
734 721 725 729 735 733 754 727 723 731 760 786 737 786 752 742 742 744 748 749 752 756 761 768 772 780 785 790 797 803 809 814 818 822 825 827 828 829 830 831 832 834 834 834
731 726 726 730 725 717 733 709 719 722 741 743 733 760 736 732 747 742 742 747 748 750 756 762 767 774 780 787 792 799 805 810 815 819 822 824 827 828 829 829 831 832 832 833
715 700 708 711 704 704 703 714 716 721 732 766 741 744 742 736 727 737 737 740 742 744 751 758 764 771 776 783 789 795 800 805 811 816 819 821 824 826 828 829 829 830 831 831
719 714 697 696 715 702 707 732 768 780 771 780 725 739 747 710 714 722 735 734 734 736 744 753 759 765 770 777 784 790 795 801 807 812 815 818 821 823 826 827 827 828 829 828
741 747 708 688 704 715 714 724 760 793 785 762 719 757 732 706 713 709 705 707 721 726 730 742 751 757 763 771 778 784 789 795 802 807 811 815 818 820 823 824 825 826 827 826
738 728 692 682 681 692 709 726 709 743 730 751 748 739 721 715 709 704 706 709 708 716 719 730 741 749 756 764 771 776 783 790 796 802 807 810 814 817 819 821 823 824 825 828
706 733 697 682 676 675 693 689 734 727 767 776 752 750 743 719 721 714 709 712 704 705 712 721 731 741 749 756 764 771 777 783 790 796 801 806 809 813 816 818 819 821 824 825
693 709 706 694 697 699 696 704 704 712 731 761 776 760 697 701 696 706 701 683 693 693 700 710 721 731 741 750 757 764 771 778 785 790 795 801 805 808 812 813 815 818 820 820
711 710 718 701 678 673 674 692 695 726 742 727 736 741 677 681 683 681 692 680 677 681 689 700 711 723 735 743 751 757 764 771 777 783 790 794 799 802 806 808 810 813 814 815
718 730 733 717 696 676 691 672 680 691 707 725 745 734 681 679 683 675 678 681 688 682 687 697 707 717 726 735 742 749 757 763 771 777 783 789 792 796 799 802 805 807 809 810
710 727 734 741 716 693 694 673 672 687 714 716 710 710 689 678 677 675 672 677 670 680 684 694 703 711 720 728 735 742 750 756 764 771 777 781 785 788 793 797 799 800 802 803
715 732 722 708 697 690 689 683 667 684 686 707 695 705 684 669 668 676 672 681 679 681 686 693 700 707 715 722 729 737 744 750 756 763 769 773 778 783 788 791 792 794 797 798
728 738 725 713 693 689 691 678 674 661 669 677 677 690 670 669 668 676 687 702 694 677 683 689 696 703 710 715 721 729 736 743 748 755 761 767 773 777 780 784 785 789 791 793
748 750 746 730 701 697 707 684 677 669 654 665 686 675 668 677 675 684 687 702 698 677 680 686 691 695 702 709 715 723 730 737 742 748 754 760 765 770 773 777 780 783 785 787
757 758 748 740 719 735 687 660 657 662 649 647 653 659 658 657 658 665 666 682 686 677 674 680 687 692 698 705 711 718 725 731 736 742 748 753 758 762 766 770 773 775 778 780
747 755 760 752 735 707 681 665 666 673 669 645 646 653 655 650 652 657 650 663 670 671 668 674 680 686 694 700 706 713 720 725 731 735 739 744 749 754 758 761 764 767 771 773
745 747 762 758 756 732 687 658 646 650 697 669 659 648 651 655 681 680 660 656 665 666 662 670 677 683 689 695 702 709 715 720 723 727 730 736 740 744 747 751 755 759 764 767
752 754 759 755 752 718 680 662 649 693 719 677 665 656 651 658 652 642 647 656 661 664 665 662 671 676 680 688 695 701 707 708 711 720 725 729 733 736 740 746 750 755 760 763
749 755 755 751 743 739 680 673 702 700 683 677 672 663 661 650 645 640 636 650 662 662 661 660 665 670 674 681 687 694 697 693 707 713 718 722 725 729 736 739 744 749 754 756
745 730 737 731 727 702 694 695 691 686 684 680 676 668 665 662 657 652 651 651 658 662 663 663 655 660 668 674 679 685 679 691 697 704 707 711 716 721 727 731 737 742 745 748
731 714 719 722 721 705 700 693 689 685 683 680 676 671 667 667 663 661 658 658 660 666 664 661 661 664 662 666 671 671 674 685 691 695 700 705 710 714 719 723 727 730 734 737
759 739 737 719 720 710 701 698 693 688 682 682 680 679 678 674 671 666 660 656 658 662 661 659 659 662 663 662 665 666 674 679 683 688 693 697 700 704 708 712 715 716 717 720
760 757 752 748 740 740 724 709 698 694 687 687 689 685 682 683 680 672 668 664 665 664 657 658 659 660 660 662 661 661 665 670 675 680 685 687 691 695 699 703 705 708 712 716